AirNav   Everest Fuels
 
 1118 users online  

SC90 Do-Little Field Airport
St Matthews, South Carolina, USA

GOING TO ST MATTHEWS?


FAA INFORMATION EFFECTIVE 10 SEPTEMBER 2020

Location

FAA Identifier: SC90
Lat/Long: 33-40-35.7300N 080-56-53.3300W
33-40.595500N 080-56.888833W
33.6765917,-80.9481472
(estimated)
Elevation: 369 ft. / 112 m (estimated)
Variation: 05W (1990)
From city: 9 miles W of ST. MATTHEWS, SC
Time zone: UTC -4 (UTC -5 during Standard Time)
Zip code: 29135

Airport Operations

Airport use: Private use. Permission required prior to landing
Activation date: 06/1993
Control tower: no
ARTCC: JACKSONVILLE CENTER
FSS: ANDERSON FLIGHT SERVICE STATION
Attendance: UNATNDD
Wind indicator: yes
Segmented circle: no

Airport Communications

WX ASOS at OGB (14 nm S): 118.525 (803-536-3901)
WX ASOS at CUB (18 nm N): 118.675 (803-929-0665)
WX ASOS at CAE (18 nm NW): 120.15 (803-822-4168)

Nearby radio navigation aids

VOR radial/distance  VOR name  Freq  Var
CAEr156/12.1COLUMBIA VORTAC114.7002W
MMTr214/16.5MC ENTIRE VORTAC113.2008W
VANr302/27.7VANCE VORTAC110.4006W

 
NDB name  Hdg/Dist  Freq  Var  ID
SUMTER244/34.925207WSMS ... -- ...
AIKEN094/36.434706WAIK .- .. -.-
MANNING284/37.438106WMNI -- -. ..

Airport Services

Runway Information

Runway 14/32

Dimensions: 3200 x 100 ft. / 975 x 30 m
Surface: turf
RUNWAY 14  RUNWAY 32
Traffic pattern: leftright

Airport Ownership and Management from official FAA records

Ownership: Privately-owned
Owner: DO-LITTLE FIELD INC
160 DO LITTLE LANE
ST MATTHEWS, SC 29135
Phone 803-874-4281
Manager: BILL MITCHELL
35 DOOLITTLE LN
ST MATTHEWS, SC 29135
Phone 803-874-1310

Airport Operational Statistics

Aircraft based on the field: 9
Single engine airplanes: 9
    

Additional Remarks

FOR CD CTC COLUMBIA APCH AT 803-822-5242 OR 803-822-5040.

Instrument Procedures

There are no published instrument procedures at SC90.

Some nearby airports with instrument procedures:

KXNO - North Air Force Auxiliary Field (8 nm SW)
KOGB - Orangeburg Municipal Airport (14 nm S)
KMMT - Mc Entire Joint National Guard Base (16 nm NE)
6J0 - Lexington County Airport (16 nm NW)
KCUB - Jim Hamilton L B Owens Airport (18 nm N)
KCAE - Columbia Metropolitan Airport (18 nm NW)
 
Loc | Ops | Rwys | IFR | FBO | Links
Com | Nav | Svcs | Stats | Notes
Area around SC90 (Do-Little Field Airport)
 
Road maps at: MapQuest Bing Google
 
Aerial photo
WARNING: Photo may not be current or correct
Aerial photo of SC90 (Do-Little Field Airport)
Photo by Eddie Price
Photo taken 10-Nov-2012
looking west.

Do you have a better or more recent aerial photo of Do-Little Field Airport that you would like to share? If so, please send us your photo.

 
Sectional chart

 
Airport distance calculator
Flying to Do-Little Field Airport? Find the distance to fly.

From to SC90

Sunrise and sunset
Times for 19-Sep-2020
 Local
(UTC-4)
 Zulu
(UTC)
Morning civil twilight06:4710:47
Sunrise07:1111:11
Sunset19:2323:23
Evening civil twilight19:4823:48

Current date and time
Zulu (UTC)  19-Sep-2020 15:18:44
Local (UTC-4)  19-Sep-2020 11:18:44
 
METAR
KXNO 
8nm SW 
191456Z AUTO 02010G17KT 10SM BKN180 19/15 A3019 RMK AO2 SLP224 T01870154 52021
KOGB 
14nm S 
191453Z AUTO 04011G20KT 10SM CLR 20/14 A3018 RMK AO2 SLP216 T02000139 51024
KMMT 
17nm NE 
191456Z 05011KT 10SM OVC170 19/12 A3020 RMK AO2A SLPNO ALSTG ESTMD $
KCAE 
18nm NW 
191456Z 03009KT 10SM BKN150 OVC200 19/12 A3020 RMK AO2 SLP225 T01940117 53022
KCUB 
18nm N 
191453Z AUTO 04009KT 010V080 10SM CLR 19/12 A3022 RMK AO2 SLP230 T01940122 51026 TSNO
TAF
KOGB 
14nm S 
191135Z 1912/2012 04010G15KT P6SM SCT060 BKN200 WS020/04030KT FM191400 04014G22KT P6SM SCT060 BKN200 FM200000 05010KT P6SM SKC WS020/05030KT
KMMT 
17nm NE 
190700Z 1907/2013 03006KT 9999 SCT030 OVC200 510102 QNH3000INS BECMG 1909/1910 03006KT 9999 FEW024 WS020/05035KT QNH3005INS BECMG 1914/1915 04015G20KT 9999 FEW025 QNH3017INS BECMG 1921/1922 04009KT 9999 FEW160 QNH3017INS BECMG 2005/2006 03009KT 9999 BKN025 510102 QNH3024INS TX22/1919Z TN13/1912Z
KCAE 
18nm NW 
191135Z 1912/2012 04010G15KT P6SM SCT060 BKN200 WS020/04030KT FM191400 04012G20KT P6SM SCT060 BKN200 FM200000 05010KT P6SM SKC WS020/05030KT
KCUB 
18nm N 
191135Z 1912/2012 05008KT P6SM SCT060 BKN200 WS020/04030KT FM191400 04010G16KT P6SM SCT060 BKN200 FM200000 05007KT P6SM SKC WS020/05030KT
NOTAMs
Click for the latest NOTAMs
NOTAMs are issued by the DoD/FAA and will open in a separate window not controlled by AirNav.

 

 
 

Would you like to see your business listed on this page?

 If your business provides an interesting product or service to pilots, flight crews, aircraft, or users of the Do-Little Field Airport, you should consider listing it here.  To start the listing process, click on the button below
 
Add a business
 

Other Pages about Do-Little Field Airport

Update a link
 
Copyright © AirNav, LLC. All rights reserved. Privacy Policy  Contact